Location: Serin Observatory
(40.5200°N, 74.4500°W)
Time: 08:11:27
(UTC+00:00)

SL-8 R/B - Visible Passes

Search period start: 01 October 2014 00:00
Search period end: 11 October 2014 00:00
Orbit: 659 x 670 km, 48.4° (Epoch: 30 September)

Date Brightness Start Highest point End Pass type
(mag) Time Alt. Az. Time Alt. Az. Time Alt. Az.
01 Oct 5.6 10:02:53 10° SSW 10:07:00 28° SE 10:11:08 10° ENE visible
02 Oct 6.3 08:54:37 10° SSE 08:56:38 13° SE 08:58:39 10° ESE visible
03 Oct 5.3 09:23:56 11° SSW 09:27:54 31° SE 09:32:09 10° ENE visible
04 Oct 6.1 08:16:54 14° SE 08:17:31 14° SE 08:19:57 10° E visible
04 Oct 3.9 09:54:58 12° SW 09:59:26 70° SE 10:04:16 10° ENE visible
05 Oct 4.9 08:47:48 31° SSE 08:48:48 34° SE 08:53:09 10° ENE visible
05 Oct 3.9 10:26:27 10° WSW 10:31:14 61° NNW 10:36:02 10° NE visible
06 Oct 6.5 07:40:32 12° ESE 07:40:32 12° ESE 07:41:10 10° E visible
06 Oct 3.7 09:18:35 39° SW 09:20:22 76° SSE 09:25:12 10° ENE visible
07 Oct 5.4 08:11:14 29° E 08:11:14 29° E 08:14:08 10° ENE visible
07 Oct 3.9 09:49:16 23° W 09:52:11 58° NNW 09:56:58 10° NE visible
08 Oct 3.9 08:41:50 69° E 08:41:50 69° E 08:46:09 10° ENE visible
08 Oct 4.6 10:19:52 11° W 10:24:14 38° NNW 10:28:45 10° NE visible
09 Oct 6.5 07:34:20 14° ENE 07:34:20 14° ENE 07:35:07 10° ENE visible
09 Oct 3.9 09:12:23 49° WNW 09:13:08 54° NNW 09:17:54 10° NE visible
10 Oct 5.6 08:04:50 27° ENE 08:04:50 27° ENE 08:07:04 10° ENE visible
10 Oct 4.6 09:42:52 23° WNW 09:45:12 37° NNW 09:49:42 10° NE visible
